Location: Unspecified
(33.6682°S, 0.0000°E)
Time: 18:30:26
(UTC+00:00)

Transit 2A Rocket - Visible Passes

Search period start: 16 June 2019 00:00
Search period end: 26 June 2019 00:00
Orbit: 586 x 917 km, 66.7° (Epoch: 16 June)

Date Brightness Start Highest point End Pass type
(mag) Time Alt. Az. Time Alt. Az. Time Alt. Az.
20 Jun 7.4 06:28:32 10° SSE 06:31:31 15° SE 06:34:38 10° E visible
23 Jun 7.3 06:02:42 10° S 06:06:43 21° SE 06:10:59 10° ENE visible
24 Jun 7.6 05:21:38 10° SSE 05:23:54 13° SE 05:26:14 10° ESE visible
25 Jun 5.9 06:19:15 10° SSW 06:24:30 52° ESE 06:30:09 10° NE visible
